STARLINK-32841, 62865

Orbit data source: Space-Track

STARLINK-32841, 62865 is a payload satellite owned by SpaceX/Seattle (US) in LEO that was launched on Sat, 01 Feb 2025 UTC via an FALCON 9 launch vehicle from the Air Force Western Test Range (AFWTR). Payload-class satellites include a variety of spacecraft equipped with specific instruments for various scientific and technological missions. These include communications satellites like Starlink; space stations such as the ISS; scientific satellites like the Hubble; Earth observation satellites from companies like Planet Labs, Umbra, and HawkEye 360; GPS; miniature CubeSats for education and research; and military/defense satellites.

Loading next visibility...
Identifier
62865, 2025-022M
Orbit
LEO
Last TLE update
4 hours ago
Origin
Manufacturer
SpaceX/Seattle
Mission
Operational Commercial Communications
Bus & Motor
STARLINK V2M, Unknown motor
Mass
730 kg wet, ~700 kg dry
Launch date (UTC)
2025-02-01 (3 months ago)
Launch vehicle
FALCON 9
Launch site
Air Force Western Test Range (AFWTR)
Object type
Payload
Rocket body
Debris
Shape & HBR
Box + 2 Pan, 29 m
Radar Cross Section
33.884 m², Large (>1 m²)

Expand to show TLE details & history

TLE from 4 hours ago
0 STARLINK-32841
1 62865U 25022M   25129.16668981 -.00056470  00000-0 -14109-2 0  9993
2 62865  53.1577 108.5402 0001239  90.8159 273.9322 15.39648337 16020
Epoch: 2025-05-09T04:00Z
Definitive object data (Epoch: 2025-05-09T04:00:01.999Z)
Latitude
3.72976°
Longitude
-175.91083°
Altitude
447.587 km
Speed
7.645 km/s
True Right ascension
07h 25m 17s
True Declination
3° 42' 23"
Sunlit
Object was in daylight at TLE epoch
Visualization TLE readout
Latitude
-45.46287°
Longitude
131.22329°
Altitude
463.388 km
Speed
7.634 km/s
Apparent Right ascension
04h 13m 09s
Apparent Declination
-42° 42' 08"
Sunlit
Object is in daylight
Visualization observer readout
Local Sidereal Time
16:32:07
Azimuth
129.581° SE
Elevation
-85.479°
Doppler factor
1
Orbital elements
Apogee altitude
448.252 km
Perigee altitude
446.561 km
Semi-major axis
6,825.543 km
Eccentricity
0.0001239
Inclination
53.1577°
RAAN
108.5402°
Arg. of periapsis
90.8159°
True anomaly
273.91804°
Mean anomaly
273.9322°
Eccentric anomaly
273.92512°
Mean motion
3.84891 °/min
BSTAR
-0.0014109
Orbital period
93.53 mins
Loading maneuver chart data...
Loading SW <> Apogee altitude chart data...
Loading historical data...
Loading historical data...
Loading historical data...
Loading historical data...
Loading historical data...
Loading historical data...
Loading historical data...

STARLINK-32841 Visibility forecast

Observer location: undefined°, undefined°

Span
Click to sort rows by Start time (UTC) header in descending order
Start Az.
Max El. time (UTC)
Max El. Az.
Max El.
End time (UTC)
End Az.
5 mins2025-05-09 09:10:58.615Z287.889° WNW2025-05-09 09:13:58.615Z223.589° SW25.707°2025-05-09 09:15:58.615Z176.173° S
5 mins2025-05-10 02:00:58.615Z268.43° W2025-05-10 02:02:58.615Z323.399° NNW30.738°2025-05-10 02:05:58.615Z33.87° NE
5 mins2025-05-10 06:55:58.615Z339.916° N2025-05-10 06:57:58.615Z25.024° NE23.143°2025-05-10 07:00:58.615Z85.983° E
|